Wind_Speed
20 23 21 24 24 24 27 26 26 28 28 27 25 21 21 21 18 19 17 17 16 16 16 16 15 14 12 16 18 8 10 7 27 29 33 23 24 18 12 11 6 3 2 11 6 6 2
20 21 24 25 24 27 26 28 28 28 29 25 25 24 22 21 18 18 17 16 15 15 15 14 13 10 13 11 10 22 8 3 24 32 35 27 20 18 13 9 8 8 10 3 6 7 4
22 22 24 25 26 25 26 31 29 28 28 26 24 24 22 20 19 18 17 17 17 14 12 13 14 9 14 17 5 17 29 15 13 34 38 31 23 19 14 5 13 7 3 4 11 6 3
23 23 25 26 28 26 28 31 31 28 28 26 25 23 23 20 19 19 17 17 16 15 16 18 11 10 8 11 13 4 22 20 15 33 34 30 23 14 6 11 5 5 1 3 2 10 8
23 24 26 28 28 26 31 31 31 29 27 26 26 25 23 22 21 19 16 17 14 19 18 14 8 9 5 12 11 11 11 10 25 30 31 28 25 10 7 6 4 4 4 7 3 9 3
24 23 26 29 27 29 31 33 29 30 30 28 28 26 23 19 18 14 14 15 13 6 3 8 4 6 6 6 12 16 8 16 26 28 19 21 11 4 3 6 9 7 4 3 9 3 2
23 24 26 28 28 30 30 29 29 30 32 29 26 25 25 21 19 14 13 9 2 1 3 1 5 6 12 8 13 17 8 22 19 24 10 18 7 15 14 6 3 9 5 4 2 2 2
23 24 25 27 29 30 32 30 32 33 31 33 30 29 28 27 17 14 9 3 4 2 1 3 6 12 2 10 8 10 12 13 12 13 10 8 13 9 12 7 5 6 6 4 1 3 2
23 25 25 27 30 31 31 30 32 30 33 34 32 28 25 20 14 5 4 1 2 2 0 3 2 6 2 9 10 12 13 9 3 7 11 6 3 9 13 10 9 2 5 3 3 1 2
22 24 26 27 29 30 29 30 31 29 35 32 28 27 20 14 10 4 5 1 5 3 3 5 3 3 8 11 3 13 8 5 4 8 12 1 2 11 10 13 9 4 2 4 4 2 1
23 23 26 28 28 30 29 30 30 27 29 30 27 23 17 16 6 5 1 1 7 1 5 3 2 2 8 5 10 4 4 5 6 10 4 3 10 11 7 3 6 1 3 4 3 4 2
23 25 26 27 29 29 28 28 29 24 23 27 29 22 16 12 12 9 8 6 2 5 5 2 2 7 1 8 6 6 4 11 10 9 10 2 6 6 3 11 5 10 5 6 4 2 0
23 25 25 28 28 28 27 27 27 25 23 23 26 20 17 11 11 10 4 6 4 6 2 3 2 6 2 6 6 4 2 4 3 4 3 5 5 3 7 9 2 1 3 2 2 1 3
23 24 25 28 28 28 26 25 23 23 21 20 18 19 14 11 5 3 15 4 9 1 1 4 6 11 6 6 7 4 2 3 5 4 3 4 3 3 1 3 6 2 2 4 4 3 1
22 23 26 27 28 29 29 24 22 21 19 17 16 13 15 17 15 10 8 5 3 2 1 5 6 7 5 6 5 4 3 1 3 4 4 4 3 2 5 2 2 3 2 2 6 2 1
21 21 25 26 28 29 30 25 23 22 19 17 15 9 18 18 18 9 1 6 3 3 2 4 4 1 4 2 3 2 1 2 3 3 0 2 5 2 1 4 10 2 6 2 2 2 3
19 20 22 25 27 29 30 28 23 22 19 18 11 3 20 19 8 8 3 3 3 5 3 3 3 4 3 4 2 2 1 2 1 1 5 3 3 1 3 1 5 2 1 4 3 1 3
18 19 18 24 27 27 29 29 22 22 20 17 6 3 18 12 5 3 3 4 6 5 6 3 4 4 3 4 3 2 3 3 5 5 3 1 4 3 2 1 1 1 4 4 3 3 2
17 19 16 22 25 27 27 29 23 20 18 17 4 6 14 13 4 4 5 4 2 5 4 3 2 2 1 3 4 2 3 2 6 3 5 4 2 3 1 1 3 3 3 3 4 3 4
16 19 17 18 24 25 25 27 25 19 13 10 3 3 7 9 5 3 5 4 5 4 3 3 3 4 3 4 5 3 2 4 5 2 8 5 3 3 4 3 3 3 4 4 5 3 3
14 16 16 16 22 23 24 23 23 18 11 5 4 1 2 3 3 3 1 3 3 5 6 8 4 2 3 3 2 2 2 2 5 5 4 3 3 1 1 1 3 3 4 7 6 5 6
13 13 16 16 18 21 23 21 22 19 11 5 3 2 3 4 7 3 5 2 5 4 4 3 5 3 2 4 3 6 5 3 3 2 3 2 3 2 3 0 5 4 7 9 9 4 10
12 12 15 16 16 19 22 19 19 19 15 6 5 2 1 4 2 1 1 3 1 2 4 6 2 4 7 4 1 0 1 6 7 6 3 4 5 2 2 3 3 5 10 14 5 5 9
12 12 13 16 13 18 19 20 17 15 12 8 6 3 2 2 1 2 2 2 3 1 5 2 5 3 5 5 10 14 16 14 10 5 3 5 4 2 1 3 1 4 3 8 13 6 12
13 13 14 15 13 16 17 18 17 13 10 4 3 2 2 3 2 6 3 2 1 4 3 3 3 5 6 2 3 3 2 3 3 5 3 1 4 2 1 2 6 1 2 5 6 2 8
14 13 13 15 13 12 16 16 15 15 10 7 3 3 3 3 4 4 4 2 3 2 2 1 4 6 3 3 2 3 3 2 2 2 5 4 4 3 1 2 3 3 1 2 3 1 2
14 12 12 14 14 11 14 13 14 12 11 9 4 6 4 4 8 3 4 3 2 3 3 1 3 2 4 2 2 2 2 5 4 4 4 2 1 3 3 2 6 7 7 2 2 3 2
14 11 13 15 14 12 13 13 13 13 9 10 8 7 5 5 18 15 8 7 4 3 3 5 4 2 1 3 3 2 2 3 2 3 5 7 6 4 3 3 6 5 2 3 1 3 4
14 12 17 17 13 13 12 15 13 11 10 11 12 10 11 11 13 11 22 27 23 14 4 7 2 5 7 3 1 2 2 2 2 2 1 4 5 4 7 5 5 1 4 4 9 16 13
Wind_Direction
345 345 336 332 336 332 331 329 326 329 327 324 325 318 317 320 313 310 310 309 302 293 286 281 279 274 257 225 238 233 138 151 199 192 186 187 180 180 181 181 147 194 178 206 208 137 215
340 342 337 338 339 332 329 328 326 326 330 325 323 320 320 316 314 312 310 303 305 301 294 285 269 262 242 241 261 219 203 319 191 189 183 184 191 180 185 176 175 197 208 168 219 242 250
342 341 339 338 333 333 331 329 327 328 331 327 325 323 320 313 310 310 304 302 302 292 283 285 268 259 247 235 221 230 231 265 222 189 183 183 170 170 159 130 188 125 134 243 239 214 246
344 340 340 337 333 335 330 331 329 332 331 326 322 320 320 315 311 309 308 301 300 296 279 280 263 248 246 224 228 237 218 235 213 194 190 181 168 163 159 138 99 163 42 157 249 186 214
342 347 344 336 339 340 334 334 334 334 328 327 323 321 321 320 315 305 304 301 305 302 287 263 249 217 230 226 223 208 201 201 181 184 189 182 175 172 141 122 98 159 191 200 300 188 136
347 346 343 340 342 340 341 334 338 332 333 331 325 317 312 309 317 312 308 315 311 325 105 135 180 186 233 202 194 191 211 187 164 174 170 190 190 147 153 168 185 166 142 173 207 171 160
349 346 347 344 346 347 345 339 336 338 336 330 327 317 311 305 301 315 307 337 332 211 171 137 209 241 129 186 172 204 195 163 157 156 169 185 183 199 186 156 149 142 139 160 207 121 151
350 348 343 346 349 347 347 343 337 342 337 332 333 326 319 302 292 270 303 309 301 281 323 341 296 230 304 154 135 200 187 167 156 174 168 175 202 174 156 140 127 132 144 197 68 68 161
349 349 348 351 352 346 344 345 344 346 341 338 335 338 338 331 294 206 255 333 199 160 47 15 20 200 131 146 139 203 190 137 143 190 107 135 151 149 160 172 139 109 154 167 132 38 95
352 352 349 355 350 346 348 349 351 349 352 358 355 352 355 6 38 115 151 62 167 174 85 355 50 239 117 128 128 170 157 111 64 98 94 19 185 146 160 168 161 148 173 112 104 82 262
351 355 356 355 352 350 350 354 356 1 359 4 10 7 12 37 65 59 122 178 160 236 77 334 47 78 95 149 133 68 88 51 96 121 126 242 163 120 107 141 92 144 94 101 90 85 23
353 355 359 352 353 354 352 359 356 1 2 1 8 17 15 44 70 67 79 108 150 42 44 80 22 126 100 145 55 99 67 65 83 60 80 108 137 128 146 149 140 162 87 57 57 80 17
352 356 358 357 354 355 353 355 4 7 360 8 8 23 27 60 68 75 50 332 28 66 299 351 83 130 97 85 80 68 22 68 112 110 78 46 14 60 98 89 44 121 127 44 29 45 215
351 356 357 1 359 355 354 355 6 7 1 354 358 6 37 37 41 44 352 33 59 288 347 255 88 96 78 34 45 66 46 74 40 80 108 113 98 28 9 124 164 84 163 158 195 189 215
348 354 358 359 1 360 359 355 359 5 357 348 350 350 21 12 3 330 339 47 55 344 207 120 72 59 54 47 85 73 354 91 51 25 106 115 55 23 38 103 94 166 75 138 103 18 31
345 352 359 358 3 1 2 358 356 2 354 351 351 353 13 353 337 337 347 77 79 219 351 42 85 336 95 96 100 99 322 344 87 38 117 142 99 30 176 65 41 92 139 91 10 122 246
342 348 355 359 2 1 1 360 356 3 359 352 0 18 1 357 23 44 50 52 337 0 28 92 144 96 103 125 124 90 66 330 107 91 93 117 95 28 128 97 162 116 83 53 97 146 174
337 342 351 359 358 1 1 1 358 2 5 1 23 40 6 26 59 34 25 342 334 342 6 57 96 94 116 150 86 115 144 212 172 152 79 41 117 124 108 348 210 147 165 160 140 203 69
332 337 350 349 356 358 0 1 360 360 9 2 32 348 17 37 61 353 328 321 324 351 4 30 87 95 142 125 113 120 131 338 159 126 149 174 68 100 74 107 10 197 185 118 104 81 196
330 332 342 343 355 355 359 0 2 0 5 1 29 25 2 35 85 129 359 349 342 359 346 33 84 68 90 53 29 134 98 13 187 80 106 96 95 144 181 189 137 178 172 182 134 132 177
323 330 336 346 343 354 355 357 6 0 3 16 65 63 357 330 346 338 159 320 342 356 349 29 41 43 131 102 70 104 86 98 44 123 66 90 107 10 263 188 179 193 167 188 200 186 177
314 325 333 343 335 350 354 353 4 7 360 25 73 68 325 279 322 11 334 33 22 337 350 4 99 43 77 127 169 190 134 151 184 61 99 32 129 95 339 85 223 245 220 205 221 235 256
303 314 327 335 332 341 352 351 1 8 15 53 42 45 34 293 335 104 276 291 285 181 54 55 175 95 51 331 243 138 142 142 156 142 133 119 136 87 271 348 318 287 225 199 196 207 206
290 302 317 328 329 327 345 347 356 5 18 33 17 1 349 282 298 206 287 308 341 310 146 6 47 89 134 89 90 93 86 86 87 54 133 132 107 109 254 357 259 237 161 182 207 225 215
280 290 303 315 316 319 330 341 348 356 5 13 11 353 335 288 286 288 264 183 80 51 66 83 62 122 143 99 78 113 43 42 44 31 30 146 125 110 133 258 287 257 174 150 183 285 207
276 286 296 308 310 311 316 331 336 345 350 358 264 284 268 302 251 278 308 269 163 124 21 89 117 134 130 81 72 163 191 178 212 95 20 68 88 118 179 243 232 247 199 196 205 331 224
271 283 292 305 301 297 307 321 323 334 336 350 307 259 257 273 273 230 243 277 191 141 151 180 178 174 167 114 139 190 182 160 177 189 170 122 100 183 234 265 283 250 258 230 108 215 243
265 278 287 298 293 283 298 309 318 306 324 318 327 310 254 260 263 260 256 253 287 207 161 168 97 237 89 146 172 183 191 194 188 188 170 177 170 195 199 217 269 199 112 165 208 303 295
260 274 289 285 280 285 284 297 309 300 298 294 296 308 296 262 257 255 250 247 255 256 264 194 222 166 183 105 143 118 162 164 214 215 210 207 186 183 180 212 239 276 275 288 283 293 290
Height
1530 1526 1523 1519 1514 1510 1505 1500 1495 1491 1487 1482 1478 1474 1471 1468 1466 1463 1460 1458 1457 1457 1457 1457 1457 1457 1459 1460 1453 1455 1455 1458 1463 1469 1474 1480 1484 1489 1492 1497 1500 1502 1501 1502 1504 1507 1509
1527 1525 1520 1515 1512 1508 1503 1497 1492 1487 1482 1478 1475 1471 1467 1464 1462 1460 1457 1456 1454 1453 1452 1452 1452 1453 1454 1452 1450 1452 1454 1457 1460 1466 1471 1477 1480 1486 1492 1494 1498 1499 1501 1502 1503 1505 1507
1526 1522 1518 1514 1509 1504 1499 1494 1489 1483 1478 1475 1471 1467 1464 1460 1458 1456 1454 1452 1450 1449 1449 1448 1448 1449 1448 1445 1446 1448 1453 1456 1460 1463 1467 1474 1479 1485 1487 1493 1495 1498 1502 1502 1501 1504 1506
1525 1520 1516 1512 1507 1501 1496 1491 1485 1480 1475 1470 1466 1462 1459 1456 1454 1451 1449 1447 1446 1444 1444 1444 1445 1446 1443 1443 1444 1447 1449 1454 1457 1462 1469 1475 1479 1484 1486 1489 1493 1498 1501 1505 1498 1500 1503
1522 1518 1514 1509 1503 1499 1493 1487 1482 1477 1471 1466 1462 1458 1455 1452 1449 1447 1445 1443 1442 1439 1437 1439 1442 1443 1440 1440 1442 1446 1449 1451 1454 1463 1469 1475 1478 1481 1485 1487 1495 1498 1502 1503 1500 1497 1499
1520 1516 1512 1506 1501 1496 1490 1484 1479 1473 1468 1463 1458 1454 1450 1447 1445 1443 1441 1440 1438 1437 1436 1437 1440 1445 1437 1439 1441 1445 1447 1450 1454 1462 1471 1475 1477 1481 1483 1482 1488 1493 1499 1502 1499 1498 1499
1518 1515 1510 1505 1500 1494 1488 1482 1477 1470 1466 1460 1454 1450 1446 1443 1441 1440 1438 1437 1439 1439 1437 1438 1439 1436 1433 1438 1441 1445 1449 1451 1455 1462 1465 1471 1474 1471 1475 1479 1482 1487 1496 1498 1498 1497 1498
1517 1512 1509 1504 1499 1493 1486 1481 1475 1469 1463 1456 1449 1445 1439 1433 1434 1434 1436 1436 1438 1440 1437 1436 1436 1436 1437 1438 1442 1445 1448 1452 1454 1459 1463 1470 1468 1470 1477 1480 1483 1489 1495 1498 1497 1498 1499
1515 1511 1506 1502 1498 1492 1485 1479 1472 1466 1460 1452 1446 1440 1435 1429 1427 1426 1433 1436 1436 1438 1437 1437 1437 1438 1438 1440 1442 1448 1448 1449 1452 1453 1453 1466 1467 1469 1472 1479 1485 1491 1493 1497 1496 1498 1501
1513 1510 1507 1501 1496 1490 1484 1478 1471 1465 1459 1451 1444 1439 1433 1430 1429 1430 1433 1435 1436 1437 1444 1442 1439 1439 1441 1442 1446 1447 1449 1452 1454 1460 1463 1471 1468 1469 1473 1479 1482 1491 1492 1493 1496 1498 1500
1513 1507 1504 1502 1496 1489 1483 1477 1471 1465 1459 1452 1446 1442 1437 1433 1434 1434 1437 1435 1437 1439 1446 1446 1441 1439 1440 1444 1444 1446 1447 1449 1451 1460 1467 1474 1468 1473 1479 1484 1484 1493 1493 1496 1500 1505 1507
1512 1508 1502 1499 1495 1489 1482 1477 1470 1465 1460 1455 1450 1445 1441 1439 1438 1438 1438 1438 1439 1449 1447 1444 1444 1444 1444 1444 1445 1450 1452 1453 1457 1465 1468 1472 1471 1475 1479 1484 1488 1495 1498 1503 1509 1512 1511
1511 1507 1503 1498 1494 1488 1482 1476 1470 1465 1462 1457 1455 1450 1446 1444 1443 1441 1441 1441 1449 1455 1453 1447 1443 1446 1442 1446 1450 1455 1457 1460 1463 1471 1477 1476 1476 1477 1478 1485 1492 1492 1494 1510 1510 1516 1504
1511 1506 1501 1497 1492 1488 1482 1476 1470 1466 1462 1460 1458 1455 1451 1448 1446 1444 1443 1444 1450 1450 1451 1446 1443 1446 1447 1452 1457 1459 1461 1465 1463 1464 1478 1482 1484 1482 1482 1485 1488 1496 1493 1506 1499 1502 1502
1509 1504 1501 1496 1492 1487 1481 1475 1470 1465 1463 1461 1458 1456 1453 1450 1448 1445 1445 1444 1449 1452 1451 1445 1448 1451 1455 1457 1459 1463 1467 1467 1466 1465 1470 1484 1489 1484 1484 1484 1487 1496 1502 1505 1521 1531 1521
1509 1503 1500 1496 1492 1487 1481 1475 1470 1465 1463 1460 1457 1455 1453 1451 1447 1445 1444 1443 1449 1451 1448 1447 1453 1454 1459 1461 1463 1467 1468 1466 1467 1467 1467 1477 1490 1486 1487 1485 1490 1489 1499 1507 1521 1521 1503
1507 1503 1498 1494 1490 1487 1481 1476 1470 1465 1462 1459 1456 1455 1454 1451 1448 1447 1452 1454 1452 1450 1448 1450 1455 1458 1461 1462 1462 1465 1468 1468 1466 1468 1467 1474 1482 1491 1487 1490 1494 1498 1502 1506 1509 1513 1502
1505 1502 1499 1494 1490 1486 1481 1476 1470 1465 1461 1460 1457 1460 1457 1452 1453 1456 1458 1458 1454 1452 1449 1449 1452 1455 1459 1461 1464 1465 1466 1465 1465 1466 1471 1475 1482 1490 1491 1492 1491 1491 1495 1501 1504 1509 1523
1505 1501 1498 1494 1490 1486 1481 1477 1472 1467 1462 1461 1461 1461 1459 1454 1465 1464 1460 1457 1456 1453 1452 1451 1452 1453 1457 1461 1466 1465 1466 1467 1466 1467 1471 1474 1489 1497 1494 1494 1495 1495 1495 1497 1503 1508 1519
1504 1501 1497 1495 1490 1485 1482 1477 1473 1469 1465 1465 1464 1467 1463 1461 1463 1465 1464 1462 1458 1455 1454 1453 1454 1454 1456 1461 1462 1466 1467 1468 1467 1468 1469 1471 1486 1486 1487 1487 1493 1499 1493 1496 1499 1509 1508
1502 1501 1497 1495 1491 1486 1481 1478 1474 1470 1467 1467 1466 1472 1472 1471 1466 1466 1464 1463 1461 1461 1456 1455 1456 1456 1458 1463 1465 1468 1468 1469 1469 1470 1471 1474 1485 1490 1488 1488 1489 1488 1488 1494 1499 1496 1498
1500 1499 1497 1493 1490 1487 1482 1479 1474 1471 1468 1468 1469 1471 1471 1468 1467 1465 1465 1463 1464 1462 1462 1459 1460 1460 1458 1461 1462 1467 1466 1468 1468 1472 1473 1477 1489 1495 1497 1487 1489 1491 1488 1490 1490 1488 1487
1496 1496 1496 1493 1491 1486 1483 1480 1475 1472 1470 1469 1471 1471 1471 1468 1467 1467 1466 1464 1461 1461 1462 1460 1461 1461 1463 1464 1462 1462 1463 1463 1465 1470 1475 1477 1490 1496 1493 1490 1488 1490 1478 1479 1482 1480 1477
1494 1495 1494 1491 1491 1488 1484 1480 1476 1474 1472 1472 1473 1473 1471 1469 1468 1465 1464 1463 1461 1459 1460 1462 1461 1460 1465 1464 1464 1465 1465 1467 1468 1470 1470 1477 1481 1490 1491 1493 1497 1467 1466 1467 1469 1467 1470
1488 1490 1491 1488 1487 1487 1485 1480 1478 1475 1473 1472 1473 1473 1472 1469 1467 1464 1462 1460 1461 1460 1460 1460 1461 1462 1464 1465 1467 1467 1470 1470 1473 1473 1472 1471 1478 1490 1492 1482 1479 1461 1464 1465 1465 1459 1459
1484 1485 1486 1485 1484 1484 1483 1480 1478 1475 1473 1472 1472 1472 1473 1471 1465 1464 1463 1460 1461 1462 1463 1462 1462 1462 1464 1466 1470 1469 1474 1474 1477 1475 1474 1474 1475 1486 1492 1482 1480 1462 1458 1457 1458 1462 1456
1481 1482 1483 1482 1481 1481 1480 1479 1477 1475 1472 1471 1470 1471 1472 1470 1463 1463 1463 1461 1458 1459 1461 1461 1462 1463 1463 1468 1469 1470 1469 1473 1474 1476 1475 1479 1481 1482 1490 1484 1473 1460 1456 1458 1463 1465 1455
1478 1479 1480 1478 1478 1478 1477 1476 1476 1474 1472 1470 1469 1468 1470 1467 1460 1460 1459 1459 1458 1457 1459 1458 1462 1462 1463 1463 1465 1467 1470 1469 1470 1469 1471 1473 1479 1477 1483 1477 1482 1456 1456 1458 1457 1454 1454
1475 1475 1475 1474 1473 1475 1474 1473 1473 1472 1470 1468 1467 1467 1466 1465 1457 1454 1453 1453 1455 1457 1457 1456 1456 1454 1456 1461 1463 1464 1469 1468 1470 1461 1465 1470 1467 1471 1470 1467 1454 1454 1454 1453 1453 1453 1452